Time,TemperatureF,DewpointF,PressureIn,WindDirection,WindDirectionDegrees,WindSpeedMPH,WindSpeedGustMPH,Humidity,HourlyPrecipIn,Conditions,Clouds,dailyrainin,SoftwareType,DateUTC
2013-01-20 00:02:00,39.0,26.0,30.32,North,5,2.0,9.0,59,0.00,,,0.00,,2013-01-20 06:02:00,
2013-01-20 00:12:00,39.0,26.0,30.32,North,5,2.0,9.0,59,0.00,,,0.00,,2013-01-20 06:12:00,
2013-01-20 00:22:00,38.0,25.0,30.32,North,5,1.0,6.0,59,0.00,,,0.00,,2013-01-20 06:22:00,
2013-01-20 00:33:00,38.0,25.0,30.32,NNE,19,2.0,11.0,60,0.00,,,0.00,,2013-01-20 06:33:00,
2013-01-20 00:42:00,38.0,25.0,30.32,NNE,19,2.0,11.0,60,0.00,,,0.00,,2013-01-20 06:42:00,
2013-01-20 00:53:00,38.0,26.0,30.33,NNE,13,5.0,13.0,62,0.00,,,0.00,,2013-01-20 06:53:00,
2013-01-20 01:02:00,38.0,27.0,30.34,NNE,21,3.0,14.0,64,0.00,,,0.00,,2013-01-20 07:02:00,
2013-01-20 01:12:00,38.0,27.0,30.34,NNE,21,3.0,14.0,64,0.00,,,0.00,,2013-01-20 07:12:00,
2013-01-20 01:22:00,37.0,27.0,30.35,ENE,59,5.0,13.0,66,0.00,,,0.00,,2013-01-20 07:22:00,
2013-01-20 01:32:00,36.0,25.0,30.34,NNW,331,4.0,11.0,64,0.00,,,0.00,,2013-01-20 07:32:00,
2013-01-20 01:42:00,36.0,25.0,30.34,NNW,331,4.0,11.0,64,0.00,,,0.00,,2013-01-20 07:42:00,
2013-01-20 01:52:00,36.0,25.0,30.34,NNW,331,4.0,11.0,64,0.00,,,0.00,,2013-01-20 07:52:00,
2013-01-20 02:02:00,34.0,20.0,30.36,North,5,2.0,11.0,57,0.00,,,0.00,,2013-01-20 08:02:00,
2013-01-20 02:12:00,34.0,20.0,30.36,North,5,2.0,11.0,57,0.00,,,0.00,,2013-01-20 08:12:00,
2013-01-20 02:22:00,33.0,19.0,30.36,NNE,12,4.0,11.0,56,0.00,,,0.00,,2013-01-20 08:22:00,
2013-01-20 02:32:00,33.0,19.0,30.37,NNW,329,1.0,9.0,55,0.00,,,0.00,,2013-01-20 08:32:00,
2013-01-20 02:42:00,33.0,19.0,30.37,NNW,329,1.0,9.0,55,0.00,,,0.00,,2013-01-20 08:42:00,
2013-01-20 02:52:00,32.0,18.0,30.38,NNW,331,0.0,6.0,55,0.00,,,0.00,,2013-01-20 08:52:00,
2013-01-20 03:02:00,31.0,17.0,30.38,NW,319,2.0,10.0,55,0.00,,,0.00,,2013-01-20 09:02:00,
2013-01-20 03:12:00,31.0,17.0,30.38,NW,319,2.0,10.0,55,0.00,,,0.00,,2013-01-20 09:12:00,
2013-01-20 03:22:00,31.0,17.0,30.37,NE,44,2.0,9.0,56,0.00,,,0.00,,2013-01-20 09:22:00,
2013-01-20 03:33:00,30.0,17.0,30.37,NNE,18,3.0,10.0,58,0.00,,,0.00,,2013-01-20 09:33:00,
2013-01-20 03:42:00,30.0,17.0,30.37,NNE,18,3.0,10.0,58,0.00,,,0.00,,2013-01-20 09:42:00,
2013-01-20 03:53:00,29.0,15.0,30.36,NNW,341,2.0,11.0,56,0.00,,,0.00,,2013-01-20 09:53:00,
2013-01-20 04:02:00,29.0,16.0,30.37,NNE,15,0.0,10.0,58,0.00,,,0.00,,2013-01-20 10:02:00,
2013-01-20 04:12:00,29.0,16.0,30.37,NNE,15,0.0,10.0,58,0.00,,,0.00,,2013-01-20 10:12:00,
2013-01-20 04:22:00,28.0,13.0,30.37,NNW,336,3.0,14.0,52,0.00,,,0.00,,2013-01-20 10:22:00,
2013-01-20 04:32:00,28.0,12.0,30.37,North,355,1.0,10.0,51,0.00,,,0.00,,2013-01-20 10:32:00,
2013-01-20 04:42:00,28.0,12.0,30.37,North,355,1.0,10.0,51,0.00,,,0.00,,2013-01-20 10:42:00,
2013-01-20 04:52:00,27.0,10.0,30.38,North,5,1.0,8.0,49,0.00,,,0.00,,2013-01-20 10:52:00,
2013-01-20 05:02:00,26.0,9.0,30.39,North,5,0.0,7.0,48,0.00,,,0.00,,2013-01-20 11:02:00,
2013-01-20 05:12:00,26.0,9.0,30.39,North,5,0.0,7.0,48,0.00,,,0.00,,2013-01-20 11:12:00,
2013-01-20 05:22:00,25.0,9.0,30.39,North,355,0.0,5.0,50,0.00,,,0.00,,2013-01-20 11:22:00,
2013-01-20 05:32:00,24.0,9.0,30.40,North,355,0.0,3.0,51,0.00,,,0.00,,2013-01-20 11:32:00,
2013-01-20 05:42:00,24.0,9.0,30.40,North,355,0.0,3.0,51,0.00,,,0.00,,2013-01-20 11:42:00,
2013-01-20 05:53:00,24.0,9.0,30.39,North,355,0.0,3.0,52,0.00,,,0.00,,2013-01-20 11:53:00,
2013-01-20 06:03:00,23.0,8.0,30.38,North,355,0.0,3.0,53,0.00,,,0.00,,2013-01-20 12:03:00,
2013-01-20 06:12:00,23.0,8.0,30.38,North,355,0.0,3.0,53,0.00,,,0.00,,2013-01-20 12:12:00,
2013-01-20 06:23:00,23.0,9.0,30.38,North,355,0.0,3.0,54,0.00,,,0.00,,2013-01-20 12:23:00,
2013-01-20 06:33:00,22.0,8.0,30.37,North,360,0.0,5.0,55,0.00,,,0.00,,2013-01-20 12:33:00,
2013-01-20 06:43:00,22.0,8.0,30.37,North,360,0.0,5.0,55,0.00,,,0.00,,2013-01-20 12:43:00,
2013-01-20 06:53:00,22.0,9.0,30.37,North,9,1.0,6.0,57,0.00,,,0.00,,2013-01-20 12:53:00,
2013-01-20 07:02:00,22.0,9.0,30.36,ENE,65,4.0,9.0,57,0.00,,,0.00,,2013-01-20 13:02:00,
2013-01-20 07:12:00,22.0,9.0,30.36,ENE,65,4.0,9.0,57,0.00,,,0.00,,2013-01-20 13:12:00,
2013-01-20 07:23:00,22.0,9.0,30.36,ENE,65,4.0,9.0,57,0.00,,,0.00,,2013-01-20 13:23:00,
2013-01-20 07:33:00,22.0,10.0,30.37,NE,40,2.0,10.0,58,0.00,,,0.00,,2013-01-20 13:33:00,
2013-01-20 07:42:00,22.0,10.0,30.37,NE,40,2.0,10.0,58,0.00,,,0.00,,2013-01-20 13:42:00,
2013-01-20 07:53:00,22.0,10.0,30.37,ENE,68,2.0,10.0,58,0.00,,,0.00,,2013-01-20 13:53:00,
2013-01-20 08:02:00,22.0,10.0,30.37,NNE,27,3.0,10.0,58,0.00,,,0.00,,2013-01-20 14:02:00,
2013-01-20 08:12:00,22.0,10.0,30.37,NNE,27,3.0,10.0,58,0.00,,,0.00,,2013-01-20 14:12:00,
2013-01-20 08:23:00,22.0,9.0,30.37,ENE,64,4.0,9.0,56,0.00,,,0.00,,2013-01-20 14:23:00,
2013-01-20 08:32:00,22.0,8.0,30.36,ENE,69,4.0,8.0,53,0.00,,,0.00,,2013-01-20 14:32:00,
2013-01-20 08:42:00,22.0,8.0,30.36,ENE,69,4.0,8.0,53,0.00,,,0.00,,2013-01-20 14:42:00,
2013-01-20 08:53:00,23.0,8.0,30.36,NE,44,2.0,8.0,53,0.00,,,0.00,,2013-01-20 14:53:00,
2013-01-20 09:03:00,23.0,7.0,30.37,NNE,28,5.0,12.0,50,0.00,,,0.00,,2013-01-20 15:03:00,
2013-01-20 09:12:00,23.0,7.0,30.37,NNE,28,5.0,12.0,50,0.00,,,0.00,,2013-01-20 15:12:00,
2013-01-20 09:23:00,23.0,8.0,30.38,ENE,65,5.0,11.0,51,0.00,,,0.00,,2013-01-20 15:23:00,
2013-01-20 09:33:00,23.0,8.0,30.39,ENE,60,0.0,9.0,53,0.00,,,0.00,,2013-01-20 15:33:00,
2013-01-20 09:42:00,23.0,8.0,30.39,ENE,60,0.0,9.0,53,0.00,,,0.00,,2013-01-20 15:42:00,
2013-01-20 09:53:00,24.0,9.0,30.40,NNE,26,1.0,6.0,52,0.00,,,0.00,,2013-01-20 15:53:00,
2013-01-20 10:03:00,24.0,9.0,30.40,NNE,26,1.0,6.0,52,0.00,,,0.00,,2013-01-20 16:03:00,
2013-01-20 10:12:00,24.0,9.0,30.40,NNE,26,1.0,6.0,52,0.00,,,0.00,,2013-01-20 16:12:00,
2013-01-20 10:23:00,25.0,9.0,30.42,NNE,15,0.0,3.0,51,0.00,,,0.00,,2013-01-20 16:23:00,
2013-01-20 10:33:00,25.0,9.0,30.42,NE,41,1.0,5.0,50,0.00,,,0.00,,2013-01-20 16:33:00,
2013-01-20 10:43:00,25.0,9.0,30.42,NE,41,1.0,5.0,50,0.00,,,0.00,,2013-01-20 16:43:00,
2013-01-20 10:53:00,27.0,10.0,30.42,NE,46,1.0,8.0,48,0.00,,,0.00,,2013-01-20 16:53:00,
2013-01-20 11:03:00,28.0,10.0,30.42,ENE,61,1.0,8.0,46,0.00,,,0.00,,2013-01-20 17:03:00,
2013-01-20 11:12:00,28.0,10.0,30.42,ENE,61,1.0,8.0,46,0.00,,,0.00,,2013-01-20 17:12:00,
2013-01-20 11:22:00,29.0,10.0,30.41,NE,42,0.0,5.0,45,0.00,,,0.00,,2013-01-20 17:22:00,
2013-01-20 11:33:00,28.0,9.0,30.41,East,91,0.0,6.0,44,0.00,,,0.00,,2013-01-20 17:33:00,
2013-01-20 11:42:00,28.0,9.0,30.41,East,91,0.0,6.0,44,0.00,,,0.00,,2013-01-20 17:42:00,
2013-01-20 11:53:00,30.0,11.0,30.41,East,79,0.0,5.0,44,0.00,,,0.00,,2013-01-20 17:53:00,
2013-01-20 12:03:00,30.0,9.0,30.40,NE,49,1.0,7.0,41,0.00,,,0.00,,2013-01-20 18:03:00,
2013-01-20 12:12:00,30.0,9.0,30.40,NE,49,1.0,7.0,41,0.00,,,0.00,,2013-01-20 18:12:00,
2013-01-20 12:23:00,30.0,10.0,30.39,SE,124,1.0,5.0,42,0.00,,,0.00,,2013-01-20 18:23:00,
2013-01-20 12:33:00,31.0,11.0,30.38,NE,50,1.0,5.0,43,0.00,,,0.00,,2013-01-20 18:33:00,
2013-01-20 12:43:00,31.0,11.0,30.38,NE,50,1.0,5.0,43,0.00,,,0.00,,2013-01-20 18:43:00,
2013-01-20 12:53:00,32.0,11.0,30.38,ENE,59,2.0,8.0,41,0.00,,,0.00,,2013-01-20 18:53:00,
2013-01-20 13:02:00,33.0,12.0,30.37,ENE,61,0.0,7.0,41,0.00,,,0.00,,2013-01-20 19:02:00,
2013-01-20 13:12:00,33.0,12.0,30.37,ENE,61,0.0,7.0,41,0.00,,,0.00,,2013-01-20 19:12:00,
2013-01-20 13:22:00,33.0,11.0,30.36,ENE,57,0.0,7.0,40,0.00,,,0.00,,2013-01-20 19:22:00,
2013-01-20 13:33:00,34.0,12.0,30.36,NNW,336,1.0,7.0,40,0.00,,,0.00,,2013-01-20 19:33:00,
2013-01-20 13:42:00,34.0,12.0,30.36,NNW,336,1.0,7.0,40,0.00,,,0.00,,2013-01-20 19:42:00,
2013-01-20 13:53:00,33.0,11.0,30.35,North,5,2.0,8.0,40,0.00,,,0.00,,2013-01-20 19:53:00,
2013-01-20 14:03:00,33.0,13.0,30.36,NW,311,4.0,9.0,43,0.00,,,0.00,,2013-01-20 20:03:00,
2013-01-20 14:12:00,33.0,13.0,30.36,NW,311,4.0,9.0,43,0.00,,,0.00,,2013-01-20 20:12:00,
2013-01-20 14:22:00,31.0,13.0,30.37,North,360,0.0,11.0,46,0.00,,,0.00,,2013-01-20 20:22:00,
2013-01-20 14:33:00,30.0,11.0,30.37,North,360,4.0,11.0,44,0.00,,,0.00,,2013-01-20 20:33:00,
2013-01-20 14:42:00,30.0,11.0,30.37,North,360,4.0,11.0,44,0.00,,,0.00,,2013-01-20 20:42:00,
2013-01-20 14:53:00,30.0,11.0,30.37,North,355,2.0,9.0,44,0.00,,,0.00,,2013-01-20 20:53:00,
2013-01-20 15:03:00,30.0,10.0,30.37,NNE,18,3.0,8.0,43,0.00,,,0.00,,2013-01-20 21:03:00,
2013-01-20 15:13:00,30.0,10.0,30.37,NNE,18,3.0,8.0,43,0.00,,,0.00,,2013-01-20 21:13:00,
2013-01-20 15:23:00,29.0,8.0,30.38,East,88,3.0,8.0,41,0.00,,,0.00,,2013-01-20 21:23:00,
2013-01-20 15:33:00,30.0,10.0,30.39,North,360,1.0,10.0,43,0.00,,,0.00,,2013-01-20 21:33:00,
2013-01-20 15:43:00,30.0,10.0,30.39,North,360,1.0,10.0,43,0.00,,,0.00,,2013-01-20 21:43:00,
2013-01-20 15:53:00,30.0,10.0,30.39,North,360,1.0,10.0,43,0.00,,,0.00,,2013-01-20 21:53:00,
2013-01-20 16:03:00,29.0,9.0,30.39,NNE,15,2.0,10.0,42,0.00,,,0.00,,2013-01-20 22:03:00,
2013-01-20 16:12:00,29.0,9.0,30.39,NNE,15,2.0,10.0,42,0.00,,,0.00,,2013-01-20 22:12:00,
2013-01-20 16:23:00,29.0,9.0,30.39,NNE,19,1.0,7.0,43,0.00,,,0.00,,2013-01-20 22:23:00,
2013-01-20 16:33:00,29.0,9.0,30.39,North,349,2.0,9.0,43,0.00,,,0.00,,2013-01-20 22:33:00,
2013-01-20 16:43:00,29.0,9.0,30.39,North,349,2.0,9.0,43,0.00,,,0.00,,2013-01-20 22:43:00,
2013-01-20 16:53:00,29.0,10.0,30.38,North,10,2.0,12.0,44,0.00,,,0.00,,2013-01-20 22:53:00,
2013-01-20 17:03:00,29.0,10.0,30.39,NNE,25,2.0,11.0,44,0.00,,,0.00,,2013-01-20 23:03:00,
2013-01-20 17:13:00,29.0,10.0,30.39,NNE,25,2.0,11.0,44,0.00,,,0.00,,2013-01-20 23:13:00,
2013-01-20 17:23:00,28.0,10.0,30.40,NNE,22,2.0,11.0,46,0.00,,,0.00,,2013-01-20 23:23:00,
2013-01-20 17:33:00,27.0,9.0,30.40,NNE,18,3.0,11.0,46,0.00,,,0.00,,2013-01-20 23:33:00,
2013-01-20 17:43:00,27.0,9.0,30.40,NNE,18,3.0,11.0,46,0.00,,,0.00,,2013-01-20 23:43:00,
2013-01-20 17:53:00,27.0,9.0,30.40,North,11,1.0,11.0,47,0.00,,,0.00,,2013-01-20 23:53:00,
2013-01-20 18:03:00,26.0,8.0,30.41,North,9,2.0,10.0,45,0.00,,,0.00,,2013-01-21 00:03:00,
2013-01-20 18:13:00,26.0,8.0,30.41,North,9,2.0,10.0,45,0.00,,,0.00,,2013-01-21 00:13:00,
2013-01-20 18:22:00,26.0,8.0,30.42,NE,38,2.0,11.0,46,0.00,,,0.00,,2013-01-21 00:22:00,
2013-01-20 18:33:00,26.0,9.0,30.42,North,5,2.0,10.0,47,0.00,,,0.00,,2013-01-21 00:33:00,
2013-01-20 18:43:00,26.0,9.0,30.42,North,5,2.0,10.0,47,0.00,,,0.00,,2013-01-21 00:43:00,
2013-01-20 18:53:00,25.0,8.0,30.43,NNE,12,2.0,14.0,47,0.00,,,0.00,,2013-01-21 00:53:00,
2013-01-20 19:03:00,25.0,8.0,30.43,NW,323,5.0,11.0,47,0.00,,,0.00,,2013-01-21 01:03:00,
2013-01-20 19:13:00,25.0,8.0,30.43,NW,323,5.0,11.0,47,0.00,,,0.00,,2013-01-21 01:13:00,
2013-01-20 19:23:00,24.0,7.0,30.44,North,355,2.0,12.0,48,0.00,,,0.00,,2013-01-21 01:23:00,
2013-01-20 19:33:00,24.0,7.0,30.44,North,355,2.0,12.0,48,0.00,,,0.00,,2013-01-21 01:33:00,
2013-01-20 19:43:00,24.0,7.0,30.44,North,355,2.0,12.0,48,0.00,,,0.00,,2013-01-21 01:43:00,
2013-01-20 19:53:00,23.0,6.0,30.46,NNW,343,2.0,7.0,48,0.00,,,0.00,,2013-01-21 01:53:00,
2013-01-20 20:03:00,23.0,6.0,30.46,NNW,340,2.0,7.0,48,0.00,,,0.00,,2013-01-21 02:03:00,
2013-01-20 20:12:00,23.0,6.0,30.46,NNW,340,2.0,7.0,48,0.00,,,0.00,,2013-01-21 02:12:00,
2013-01-20 20:23:00,23.0,7.0,30.47,North,10,0.0,9.0,50,0.00,,,0.00,,2013-01-21 02:23:00,
2013-01-20 20:33:00,23.0,7.0,30.47,NNE,28,2.0,12.0,50,0.00,,,0.00,,2013-01-21 02:33:00,
2013-01-20 20:43:00,23.0,7.0,30.47,NNE,28,2.0,12.0,50,0.00,,,0.00,,2013-01-21 02:43:00,
2013-01-20 20:53:00,23.0,8.0,30.47,NNE,15,0.0,4.0,52,0.00,,,0.00,,2013-01-21 02:53:00,
2013-01-20 21:03:00,23.0,8.0,30.47,NNE,15,0.0,4.0,52,0.00,,,0.00,,2013-01-21 03:03:00,
2013-01-20 21:12:00,23.0,8.0,30.47,NNE,15,0.0,4.0,52,0.00,,,0.00,,2013-01-21 03:12:00,
2013-01-20 21:23:00,22.0,8.0,30.47,NNW,333,0.0,5.0,53,0.00,,,0.00,,2013-01-21 03:23:00,
2013-01-20 21:33:00,22.0,8.0,30.47,North,355,1.0,9.0,53,0.00,,,0.00,,2013-01-21 03:33:00,
2013-01-20 21:43:00,22.0,8.0,30.47,North,355,1.0,9.0,53,0.00,,,0.00,,2013-01-21 03:43:00,
2013-01-20 21:53:00,22.0,8.0,30.47,North,355,1.0,9.0,53,0.00,,,0.00,,2013-01-21 03:53:00,
2013-01-20 22:03:00,21.0,7.0,30.47,North,5,0.0,0.0,54,0.00,,,0.00,,2013-01-21 04:03:00,
2013-01-20 22:12:00,21.0,7.0,30.47,North,5,0.0,0.0,54,0.00,,,0.00,,2013-01-21 04:12:00,
2013-01-20 22:23:00,21.0,7.0,30.47,North,5,0.0,0.0,54,0.00,,,0.00,,2013-01-21 04:23:00,
2013-01-20 22:33:00,20.0,7.0,30.49,North,360,0.0,4.0,56,0.00,,,0.00,,2013-01-21 04:33:00,
2013-01-20 22:42:00,20.0,7.0,30.49,North,360,0.0,4.0,56,0.00,,,0.00,,2013-01-21 04:42:00,
2013-01-20 22:52:00,20.0,7.0,30.49,NW,317,3.0,7.0,56,0.00,,,0.00,,2013-01-21 04:52:00,
2013-01-20 23:03:00,20.0,7.0,30.49,NW,317,3.0,7.0,56,0.00,,,0.00,,2013-01-21 05:03:00,
2013-01-20 23:12:00,20.0,7.0,30.49,NW,317,3.0,7.0,56,0.00,,,0.00,,2013-01-21 05:12:00,
2013-01-20 23:22:00,20.0,8.0,30.50,North,350,2.0,8.0,58,0.00,,,0.00,,2013-01-21 05:22:00,
2013-01-20 23:42:00,19.0,7.0,30.51,NW,311,5.0,13.0,59,0.00,,,0.00,,2013-01-21 05:42:00,
2013-01-20 23:52:00,19.0,7.0,30.51,North,360,2.0,10.0,60,0.00,,,0.00,,2013-01-21 05:52:00,